Flag for Denmark Weather past 2 weeks in Vejle, Denmark

Now
57 °F

Low clouds.


Feels Like: 54 °F
Forecast: 54 / 70 °F
Wind: 13 mph from East

Location: Billund Lufthavn

Current Time: Sep 17, 2014 at 9:34:53 AM

Latest Report: Sep 17, 2014 at 8:50 AM


Visibility: N/A

Pressure: 30.15 "Hg

Humidity: 94%

Dew point: 55 °F

Location of VejleLocation

Historic Weather in Vejle — Graph

°F

Vejle temperature yesterday

Maximum temperature yesterday: 68 °F (at 3:50 PM)
Minimum temperature yesterday: 55 °F (at 6:50 AM)
Average temperature yesterday: 61 °F

Past Weeks' High & Low Weather Summary

 TemperatureHumidityPressure
High73 °F (Sep 6, 1:20 PM)100% (Sep 2, 8:20 AM)30.42 "Hg (Sep 2, 8:20 AM)
Low46 °F (Sep 3, 5:20 AM)40% (Sep 2, 3:20 PM)29.86 "Hg (Sep 6, 3:50 PM)
Average59 °F84%30.14 "Hg
* Reported Sep 2 8:20 AM — Sep 17 8:20 AM, Vejle, Weather by CustomWeather, © 2014

Note: Actual official high and low records may vary slightly from our data, if they occured in-between our weather recording intervals... More about our weather records

Advertising

Vejle weather history for previous 24 hours

 ConditionsComfort  
Time TempWeatherWind HumidityBarometerVisibility
8:20 AM
Sep 17
57 °FPartly sunny.14 mph94%30.15 "HgN/A
7:50 AM57 °FPassing clouds.13 mph94%30.15 "HgN/A
7:20 AM57 °FPassing clouds.13 mph94%30.15 "HgN/A
6:50 AM57 °FPassing clouds.12 mph94%30.15 "Hg6 mi
6:20 AM55 °FPassing clouds.13 mph100%30.12 "Hg5 mi
5:50 AM55 °FPassing clouds.14 mph100%30.15 "Hg5 mi
5:20 AM55 °FPassing clouds.13 mph100%30.15 "Hg6 mi
4:50 AM55 °FPassing clouds.13 mph100%30.15 "HgN/A
4:20 AM55 °FClear.8 mph94%30.15 "Hg10 mi
3:20 AM55 °FClear.9 mph94%30.15 "Hg10 mi
2:50 AM55 °FClear.10 mph94%30.15 "Hg10 mi
2:20 AM57 °FClear.10 mph88%30.15 "Hg10 mi
1:50 AM57 °FClear.10 mph88%30.15 "Hg10 mi
1:20 AM57 °FClear.9 mph82%30.18 "Hg10 mi
12:20 AM57 °FClear.10 mph82%30.18 "Hg10 mi
11:20 PM
Sep 16
59 °FClear.10 mph82%30.18 "Hg10 mi
10:50 PM59 °FClear.8 mph82%30.18 "Hg10 mi
10:20 PM59 °FClear.10 mph82%30.18 "Hg10 mi
9:50 PM61 °FClear.9 mph83%30.18 "Hg10 mi
9:20 PM61 °FClear.12 mph83%30.18 "Hg10 mi
8:50 PM61 °FClear.10 mph88%30.15 "Hg10 mi
8:20 PM61 °FSunny.12 mph88%30.15 "Hg10 mi
7:50 PM63 °FSunny.12 mph83%30.15 "Hg10 mi
7:20 PM63 °FSunny.12 mph77%30.15 "Hg10 mi
6:50 PM64 °FSunny.13 mph73%30.15 "Hg10 mi
6:20 PM66 °FSunny.12 mph68%30.15 "Hg10 mi
5:50 PM66 °FSunny.13 mph68%30.15 "Hg10 mi
5:20 PM68 °FSunny.16 mph69%30.15 "Hg10 mi
4:50 PM68 °FPassing clouds.16 mph69%30.15 "HgN/A
3:50 PM68 °FPassing clouds.15 mph69%30.15 "HgN/A
3:20 PM66 °FPassing clouds.17 mph73%30.18 "HgN/A
2:50 PM66 °FPassing clouds.16 mph73%30.18 "HgN/A
2:20 PM66 °FPassing clouds.16 mph78%30.18 "HgN/A
1:50 PM66 °FPassing clouds.15 mph73%30.18 "HgN/A
1:20 PM64 °FPassing clouds.16 mph78%30.18 "HgN/A
12:50 PM66 °FPassing clouds.14 mph73%30.18 "HgN/A
12:20 PM64 °FPassing clouds.17 mph78%30.21 "HgN/A
11:50 AM64 °FPassing clouds.15 mph78%30.21 "HgN/A
11:20 AM63 °FPassing clouds.14 mph83%30.21 "HgN/A
10:50 AM63 °FScattered clouds.15 mph83%30.21 "HgN/A
10:20 AM61 °FPartly sunny.17 mph88%30.21 "HgN/A
9:50 AM59 °FPartly sunny.16 mph88%30.21 "HgN/A
9:20 AM59 °FPartly sunny.16 mph88%30.21 "HgN/A
Weather by CustomWeather, © 2014

See weather overviewHow to use our weather pages